Location: Saginaw
(43.4190°N, 83.9510°W)
Time: 13:51:31
(UTC-04:00)

OTV 5 (USA 277) - Visible Passes

Search period start: 21 September 2018 00:00
Search period end: 01 October 2018 00:00
Orbit: 387 x 394 km, 54.5° (Epoch: 08 September)

Date Brightness Start Highest point End Pass type
(mag) Time Alt. Az. Time Alt. Az. Time Alt. Az.
25 Sep ? 06:36:49 10° S 06:38:58 17° SE 06:41:06 10° E visible
27 Sep ? 06:19:07 10° SSW 06:22:00 31° SE 06:24:53 10° ENE visible
28 Sep ? 05:25:17 14° SE 05:25:52 15° SE 05:27:45 10° E visible
28 Sep ? 06:58:17 10° WSW 07:01:27 58° NW 07:04:38 10° NE visible
29 Sep ? 06:03:56 34° SSW 06:05:06 63° SE 06:08:17 10° ENE visible
30 Sep ? 05:10:04 21° E 05:10:04 21° E 05:11:39 10° ENE visible
30 Sep ? 06:42:28 15° W 06:44:43 34° NNW 06:47:42 10° NE visible
